Zurück zum Katalog

STARLINK-31840

AktivKommunikationVLEO
NORAD 60127·PAYLOAD·🇺🇸 United States

Gestartet Jun 24, 2024 von Vandenberg Space Force Base

Loading…

Nächste Überflüge (nächste 24 Stunden)

TLE

AktuellSource: CelesTrak SupGP

Epoche: Sep 15, 2026, 03:05 UTC

1 60127C 24118Q   26258.12895833 -.00057888  00000+0 -18612-2 0  2589
2 60127  53.1589 225.5280 0001429  89.0486  76.6019 15.31735457    15

Verfolge STARLINK-31840 in Echtzeit mit AllMySat

Download on the App Store